Regional Weather Roundup
Issued by NWS

Home | Current Version | Previous Version | Text Only | Print | Product List | Glossary Off
Versions: 1 2 3 4 5 6 7 8 9 10 11 12 13 14 15 16 17 18 19 20 21 22 23 24 25 26 27 28 29 30 31 32 33 34 35 36 37 38 39 40 41 42 43 44 45 46 47 48 49 50

781
ASUS45 KCYS 252110
RWRWY

WYOMING REGIONAL WEATHER ROUNDUP
NATIONAL WEATHER SERVICE CHEYENNE WY
300 PM MDT SUN JUN 25 2017

NOTE:  "FAIR" INDICATES FEW OR NO CLOUDS BELOW 12,000 FEET
WITH NO SIGNIFICANT WEATHER AND/OR OBSTRUCTIONS TO VISIBILITY.

WYZ001-252200-
YELLOWSTONE NATIONAL PARK

CITY           SKY/WX    TMP DP  RH WIND       PRES   REMARKS
LK YELLOWSTONE   N/A     65  40  39 VRB5      30.45F
W YELLOWSTONE  NOT AVBL

$$
WYZ002>013-054>058-071-098>099-252200-
NORTHERN WYOMING

CITY           SKY/WX    TMP DP  RH WIND       PRES   REMARKS
JACKSON        SUNNY     75  36  23 CALM      30.34F
CODY           FAIR      75  37  25 VRB5      30.31S
GREYBULL       FAIR      80  30  16 VRB3      30.23F
WORLAND        FAIR      79  34  19 NE6       30.25F
SHERIDAN       FAIR      78  36  21 N9        30.27F
BUFFALO        FAIR      72  37  28 N10G20    30.33F
GILLETTE       FAIR      77  32  19 N10G29    30.27F
NEWCASTLE      FAIR      73  32  21 N8        30.28F

$$
WYZ014>020-022>026-101>103-252200-
CENTRAL WYOMING

CITY           SKY/WX    TMP DP  RH WIND       PRES   REMARKS
BIG PINEY      FAIR      74  35  24 VRB7      30.39F
PINEDALE       FAIR      73  32  21 N9G17     30.40F
DUBOIS         FAIR      73  25  16 N15G24    30.36S
LANDER         FAIR      76  37  24 VRB6      30.29F
RIVERTON       FAIR      76  35  22 NE9       30.30F
CASPER         FAIR      77  31  18 MISG      30.30F
DOUGLAS        FAIR      76  36  23 W8        30.30F

$$
WYZ021-027>030-104>119-252200-
SOUTHERN WYOMING

CITY           SKY/WX    TMP DP  RH WIND       PRES   REMARKS
EVANSTON       FAIR      80  32  17 CALM      30.38F
KEMMERER         N/A     75  28  17 CALM      30.41S
FORT BRIDGER   FAIR      79  27  14 CALM      30.41S
ROCK SPRINGS   FAIR      78  22  12 VRB7      30.36F
DIXON          FAIR      81  24  12 W9G17     30.35S
RAWLINS        FAIR      77  24  14 NW8       30.37F
SARATOGA       FAIR      77  27  15 N12G18    30.38F
LARAMIE        FAIR      75  26  16 N10G26    30.36F
CHEYENNE       PTSUNNY   69  48  47 E10       30.36F
TORRINGTON     FAIR      78  39  24 S9        30.26F
PINE BLUFFS    CLOUDY    68  50  52 SE9       30.34F

$$




USA.gov is the U.S. government's official web portal to all federal, state and local government web resources and services.